Time,TemperatureF,DewpointF,PressureIn,WindDirection,WindDirectionDegrees,WindSpeedMPH,WindSpeedGustMPH,Humidity,HourlyPrecipIn,Conditions,Clouds,dailyrainin,SoftwareType,DateUTC
2013-05-27 00:01:00,41.5,42.0,29.94,WSW,247,4.2,7.9,100,0.00,,,0.00,Rainwise IP-100,2013-05-27 04:01:00,
2013-05-27 00:06:00,41.6,42.0,29.94,NW,315,2.8,7.7,100,0.00,,,0.00,Rainwise IP-100,2013-05-27 04:06:00,
2013-05-27 00:11:00,41.6,42.0,29.94,WNW,292,2.3,6.1,100,0.00,,,0.00,Rainwise IP-100,2013-05-27 04:11:00,
2013-05-27 00:16:00,41.6,42.0,29.95,NW,315,4.2,7.2,100,0.00,,,0.00,Rainwise IP-100,2013-05-27 04:16:00,
2013-05-27 00:21:00,41.5,42.0,29.94,WNW,292,3.0,8.2,100,0.00,,,0.00,Rainwise IP-100,2013-05-27 04:21:00,
2013-05-27 00:26:00,41.6,42.0,29.94,WNW,292,2.6,12.4,100,0.00,,,0.00,Rainwise IP-100,2013-05-27 04:26:00,
2013-05-27 00:31:00,41.8,42.0,29.94,West,270,6.1,11.0,100,0.00,,,0.00,Rainwise IP-100,2013-05-27 04:31:00,
2013-05-27 00:36:00,41.8,42.0,29.94,WNW,292,7.5,8.4,100,0.00,,,0.00,Rainwise IP-100,2013-05-27 04:36:00,
2013-05-27 00:41:00,41.7,42.0,29.93,NNW,337,5.8,10.5,100,0.00,,,0.00,Rainwise IP-100,2013-05-27 04:41:00,
2013-05-27 00:46:00,41.6,42.0,29.93,NNW,337,3.0,10.3,100,0.00,,,0.00,Rainwise IP-100,2013-05-27 04:46:00,
2013-05-27 00:51:00,41.5,42.0,29.93,NNW,337,4.0,9.3,100,0.00,,,0.00,Rainwise IP-100,2013-05-27 04:51:00,
2013-05-27 00:56:00,41.5,42.0,29.93,WNW,292,8.2,16.6,100,0.00,,,0.00,Rainwise IP-100,2013-05-27 04:56:00,
2013-05-27 01:01:00,41.5,42.0,29.93,WNW,292,4.4,10.7,100,0.00,,,0.00,Rainwise IP-100,2013-05-27 05:01:00,
2013-05-27 01:06:00,41.5,42.0,29.93,NW,315,1.9,10.0,100,0.00,,,0.00,Rainwise IP-100,2013-05-27 05:06:00,
2013-05-27 01:11:00,41.4,41.0,29.93,NNW,337,4.2,7.5,100,0.00,,,0.00,Rainwise IP-100,2013-05-27 05:11:00,
2013-05-27 01:16:00,41.4,41.0,29.94,NNW,337,7.5,8.4,100,0.00,,,0.00,Rainwise IP-100,2013-05-27 05:16:00,
2013-05-27 01:21:00,41.4,41.0,29.94,SSW,202,1.4,7.5,100,0.00,,,0.00,Rainwise IP-100,2013-05-27 05:21:00,
2013-05-27 01:26:00,41.2,41.0,29.95,WNW,292,1.6,7.7,100,0.00,,,0.00,Rainwise IP-100,2013-05-27 05:26:00,
2013-05-27 01:31:00,41.1,41.0,29.95,NNW,337,0.0,4.9,100,0.00,,,0.00,Rainwise IP-100,2013-05-27 05:31:00,
2013-05-27 01:36:00,40.9,41.0,29.95,NW,315,2.3,4.7,100,0.00,,,0.00,Rainwise IP-100,2013-05-27 05:36:00,
2013-05-27 01:41:00,40.8,41.0,29.95,WNW,292,0.0,6.3,100,0.00,,,0.00,Rainwise IP-100,2013-05-27 05:41:00,
2013-05-27 01:46:00,40.6,41.0,29.95,WSW,247,0.0,5.4,100,0.00,,,0.00,Rainwise IP-100,2013-05-27 05:46:00,
2013-05-27 01:51:00,40.4,40.0,29.95,WSW,247,0.0,2.1,100,0.00,,,0.00,Rainwise IP-100,2013-05-27 05:51:00,
2013-05-27 01:56:00,40.1,40.0,29.95,West,270,0.0,3.5,100,0.00,,,0.00,Rainwise IP-100,2013-05-27 05:56:00,
2013-05-27 02:01:00,39.9,40.0,29.95,WSW,247,0.0,3.7,100,0.00,,,0.00,Rainwise IP-100,2013-05-27 06:01:00,
2013-05-27 02:06:00,39.6,40.0,29.96,SSE,157,1.9,2.6,100,0.00,,,0.00,Rainwise IP-100,2013-05-27 06:06:00,
2013-05-27 02:11:00,39.4,39.0,29.96,SSW,202,0.0,2.6,100,0.00,,,0.00,Rainwise IP-100,2013-05-27 06:11:00,
2013-05-27 02:16:00,39.2,39.0,29.95,SSW,202,0.0,1.2,100,0.00,,,0.00,Rainwise IP-100,2013-05-27 06:16:00,
2013-05-27 02:21:00,39.0,39.0,29.96,SSW,202,1.6,1.9,100,0.00,,,0.00,Rainwise IP-100,2013-05-27 06:21:00,
2013-05-27 02:26:00,38.8,39.0,29.96,SSW,202,0.0,2.6,100,0.00,,,0.00,Rainwise IP-100,2013-05-27 06:26:00,
2013-05-27 02:31:00,38.9,39.0,29.96,SSW,202,0.0,1.2,100,0.00,,,0.00,Rainwise IP-100,2013-05-27 06:31:00,
2013-05-27 02:36:00,39.0,39.0,29.96,SSW,202,0.0,1.9,100,0.00,,,0.00,Rainwise IP-100,2013-05-27 06:36:00,
2013-05-27 02:41:00,39.0,39.0,29.96,SW,225,0.0,2.3,100,0.00,,,0.00,Rainwise IP-100,2013-05-27 06:41:00,
2013-05-27 02:46:00,39.1,39.0,29.96,WSW,247,0.0,1.9,100,0.00,,,0.00,Rainwise IP-100,2013-05-27 06:46:00,
2013-05-27 02:51:00,39.3,39.0,29.96,WSW,247,0.0,2.3,100,0.00,,,0.00,Rainwise IP-100,2013-05-27 06:51:00,
2013-05-27 02:56:00,39.4,39.0,29.96,SW,225,0.0,2.8,100,0.00,,,0.00,Rainwise IP-100,2013-05-27 06:56:00,
2013-05-27 03:01:00,39.3,39.0,29.96,SW,225,0.0,1.2,100,0.00,,,0.00,Rainwise IP-100,2013-05-27 07:01:00,
2013-05-27 03:02:00,39.3,39.0,29.96,SW,225,0.0,1.2,100,0.00,,,0.00,Rainwise IP-100,2013-05-27 07:02:00,
2013-05-27 03:07:00,39.2,39.0,29.96,SSW,202,1.4,1.4,100,0.00,,,0.00,Rainwise IP-100,2013-05-27 07:07:00,
2013-05-27 03:12:00,39.2,39.0,29.97,SSW,202,1.2,2.6,100,0.00,,,0.00,Rainwise IP-100,2013-05-27 07:12:00,
2013-05-27 03:17:00,39.2,39.0,29.97,WSW,247,0.0,2.8,100,0.00,,,0.00,Rainwise IP-100,2013-05-27 07:17:00,
2013-05-27 03:22:00,39.2,39.0,29.97,WSW,247,0.0,2.3,100,0.00,,,0.00,Rainwise IP-100,2013-05-27 07:22:00,
2013-05-27 03:27:00,39.3,39.0,29.98,SW,225,0.0,2.3,100,0.00,,,0.00,Rainwise IP-100,2013-05-27 07:27:00,
2013-05-27 03:32:00,39.3,39.0,29.98,WSW,247,0.0,1.9,100,0.00,,,0.00,Rainwise IP-100,2013-05-27 07:32:00,
2013-05-27 03:37:00,39.5,40.0,29.98,South,180,0.0,1.4,100,0.00,,,0.00,Rainwise IP-100,2013-05-27 07:37:00,
2013-05-27 03:42:00,39.6,40.0,29.98,WNW,292,0.0,4.9,100,0.00,,,0.00,Rainwise IP-100,2013-05-27 07:42:00,
2013-05-27 03:47:00,39.7,40.0,29.98,SSW,202,0.0,2.6,100,0.00,,,0.00,Rainwise IP-100,2013-05-27 07:47:00,
2013-05-27 03:52:00,39.7,40.0,29.98,WSW,247,0.0,1.6,100,0.00,,,0.00,Rainwise IP-100,2013-05-27 07:52:00,
2013-05-27 03:57:00,39.7,40.0,29.98,WNW,292,0.0,4.0,100,0.00,,,0.00,Rainwise IP-100,2013-05-27 07:57:00,
2013-05-27 04:02:00,39.6,40.0,29.98,WSW,247,0.0,2.6,100,0.00,,,0.00,Rainwise IP-100,2013-05-27 08:02:00,
2013-05-27 04:07:00,39.5,40.0,29.99,SW,225,0.0,1.6,100,0.00,,,0.00,Rainwise IP-100,2013-05-27 08:07:00,
2013-05-27 04:12:00,39.4,39.0,29.98,WSW,247,0.0,3.3,100,0.00,,,0.00,Rainwise IP-100,2013-05-27 08:12:00,
2013-05-27 04:17:00,39.3,39.0,29.98,WNW,292,1.9,2.8,100,0.00,,,0.00,Rainwise IP-100,2013-05-27 08:17:00,
2013-05-27 04:22:00,39.2,39.0,29.98,WSW,247,0.0,2.3,100,0.00,,,0.00,Rainwise IP-100,2013-05-27 08:22:00,
2013-05-27 04:27:00,39.1,39.0,29.99,West,270,0.0,3.5,100,0.00,,,0.00,Rainwise IP-100,2013-05-27 08:27:00,
2013-05-27 04:32:00,39.1,39.0,29.99,WSW,247,0.0,4.9,100,0.00,,,0.00,Rainwise IP-100,2013-05-27 08:32:00,
2013-05-27 04:37:00,39.0,39.0,29.99,SW,225,1.4,2.6,100,0.00,,,0.00,Rainwise IP-100,2013-05-27 08:37:00,
2013-05-27 04:42:00,39.0,39.0,30.00,WSW,247,0.0,2.3,100,0.00,,,0.00,Rainwise IP-100,2013-05-27 08:42:00,
2013-05-27 04:47:00,39.1,39.0,30.00,ENE,67,0.0,1.6,100,0.00,,,0.00,Rainwise IP-100,2013-05-27 08:47:00,
2013-05-27 04:52:00,39.1,39.0,29.99,SSW,202,0.0,1.9,100,0.00,,,0.00,Rainwise IP-100,2013-05-27 08:52:00,
2013-05-27 04:57:00,39.1,39.0,30.00,WSW,247,0.0,2.1,100,0.00,,,0.00,Rainwise IP-100,2013-05-27 08:57:00,
2013-05-27 05:02:00,39.1,39.0,30.00,WSW,247,0.0,2.6,100,0.00,,,0.00,Rainwise IP-100,2013-05-27 09:02:00,
2013-05-27 05:07:00,39.1,39.0,30.00,SSW,202,0.0,2.1,100,0.00,,,0.00,Rainwise IP-100,2013-05-27 09:07:00,
2013-05-27 05:12:00,39.0,39.0,30.00,WSW,247,0.0,3.0,100,0.00,,,0.00,Rainwise IP-100,2013-05-27 09:12:00,
2013-05-27 05:17:00,38.9,39.0,30.00,WSW,247,0.0,1.6,100,0.00,,,0.00,Rainwise IP-100,2013-05-27 09:17:00,
2013-05-27 05:22:00,38.8,39.0,30.00,SSW,202,0.0,4.7,100,0.00,,,0.00,Rainwise IP-100,2013-05-27 09:22:00,
2013-05-27 05:27:00,38.6,39.0,30.00,SSW,202,0.0,0.0,100,0.00,,,0.00,Rainwise IP-100,2013-05-27 09:27:00,
2013-05-27 05:32:00,38.5,39.0,30.00,South,180,0.0,1.6,100,0.00,,,0.00,Rainwise IP-100,2013-05-27 09:32:00,
2013-05-27 05:37:00,38.4,38.0,30.00,WNW,292,1.2,4.2,100,0.00,,,0.00,Rainwise IP-100,2013-05-27 09:37:00,
2013-05-27 05:42:00,38.4,38.0,30.00,West,270,0.0,3.3,100,0.00,,,0.00,Rainwise IP-100,2013-05-27 09:42:00,
2013-05-27 05:47:00,38.4,38.0,30.01,WSW,247,1.4,1.9,100,0.00,,,0.00,Rainwise IP-100,2013-05-27 09:47:00,
2013-05-27 05:52:00,38.6,39.0,30.00,SSW,202,0.0,1.9,100,0.00,,,0.00,Rainwise IP-100,2013-05-27 09:52:00,
2013-05-27 05:57:00,39.0,39.0,30.01,SSW,202,0.0,1.2,100,0.00,,,0.00,Rainwise IP-100,2013-05-27 09:57:00,
2013-05-27 06:02:00,39.5,40.0,30.01,SSW,202,0.0,1.2,100,0.00,,,0.00,Rainwise IP-100,2013-05-27 10:02:00,
2013-05-27 06:07:00,40.1,40.0,30.01,SSW,202,0.0,8.9,100,0.00,,,0.00,Rainwise IP-100,2013-05-27 10:07:00,
2013-05-27 06:12:00,40.6,41.0,30.01,SSW,202,0.0,1.9,100,0.00,,,0.00,Rainwise IP-100,2013-05-27 10:12:00,
2013-05-27 06:17:00,41.1,41.0,30.01,WSW,247,0.0,1.9,100,0.00,,,0.00,Rainwise IP-100,2013-05-27 10:17:00,
2013-05-27 06:22:00,41.5,42.0,30.02,WSW,247,1.4,3.0,100,0.00,,,0.00,Rainwise IP-100,2013-05-27 10:22:00,
2013-05-27 06:27:00,41.8,42.0,30.01,WSW,247,1.2,2.1,100,0.00,,,0.00,Rainwise IP-100,2013-05-27 10:27:00,
2013-05-27 06:32:00,42.3,42.0,30.01,SSW,202,1.4,2.6,100,0.00,,,0.00,Rainwise IP-100,2013-05-27 10:32:00,
2013-05-27 06:37:00,42.8,43.0,30.02,NNW,337,1.4,2.1,100,0.00,,,0.00,Rainwise IP-100,2013-05-27 10:37:00,
2013-05-27 06:42:00,43.1,43.0,30.02,WNW,292,0.0,4.9,100,0.00,,,0.00,Rainwise IP-100,2013-05-27 10:42:00,
2013-05-27 06:47:00,43.3,43.0,30.02,West,270,1.2,2.3,100,0.00,,,0.00,Rainwise IP-100,2013-05-27 10:47:00,
2013-05-27 06:52:00,43.6,44.0,30.02,WNW,292,0.0,4.9,99,0.00,,,0.00,Rainwise IP-100,2013-05-27 10:52:00,
2013-05-27 06:57:00,43.8,44.0,30.02,West,270,1.9,5.4,99,0.00,,,0.00,Rainwise IP-100,2013-05-27 10:57:00,
2013-05-27 07:02:00,44.2,43.0,30.02,NE,45,4.9,5.6,98,0.00,,,0.00,Rainwise IP-100,2013-05-27 11:02:00,
2013-05-27 07:07:00,44.6,44.0,30.02,NNW,337,1.2,5.8,97,0.00,,,0.00,Rainwise IP-100,2013-05-27 11:07:00,
2013-05-27 07:12:00,44.9,44.0,30.02,WSW,247,1.6,10.5,96,0.00,,,0.00,Rainwise IP-100,2013-05-27 11:12:00,
2013-05-27 07:17:00,45.2,43.0,30.02,WNW,292,1.2,4.7,94,0.00,,,0.00,Rainwise IP-100,2013-05-27 11:17:00,
2013-05-27 07:22:00,45.5,44.0,30.02,NW,315,2.8,8.2,93,0.00,,,0.00,Rainwise IP-100,2013-05-27 11:22:00,
2013-05-27 07:27:00,45.9,44.0,30.03,NW,315,2.6,7.2,92,0.00,,,0.00,Rainwise IP-100,2013-05-27 11:27:00,
2013-05-27 07:32:00,46.2,43.0,30.03,WSW,247,1.9,6.8,91,0.00,,,0.00,Rainwise IP-100,2013-05-27 11:32:00,
2013-05-27 07:37:00,46.5,44.0,30.02,WNW,292,3.3,6.8,90,0.00,,,0.00,Rainwise IP-100,2013-05-27 11:37:00,
2013-05-27 07:42:00,46.8,43.0,30.02,WSW,247,0.0,8.6,88,0.00,,,0.00,Rainwise IP-100,2013-05-27 11:42:00,
2013-05-27 07:47:00,47.1,43.0,30.03,WNW,292,1.9,9.8,87,0.00,,,0.00,Rainwise IP-100,2013-05-27 11:47:00,
2013-05-27 07:52:00,47.5,44.0,30.03,WNW,292,3.5,12.4,87,0.00,,,0.00,Rainwise IP-100,2013-05-27 11:52:00,
2013-05-27 07:57:00,47.5,43.0,30.03,WNW,292,2.6,15.2,85,0.00,,,0.00,Rainwise IP-100,2013-05-27 11:57:00,
2013-05-27 08:02:00,47.7,43.0,30.03,NW,315,2.1,12.4,84,0.00,,,0.00,Rainwise IP-100,2013-05-27 12:02:00,
2013-05-27 08:07:00,48.1,43.0,30.03,NW,315,3.3,11.0,83,0.00,,,0.00,Rainwise IP-100,2013-05-27 12:07:00,
2013-05-27 08:12:00,48.5,44.0,30.03,WNW,292,1.4,6.3,83,0.00,,,0.00,Rainwise IP-100,2013-05-27 12:12:00,
2013-05-27 08:17:00,49.2,44.0,30.03,West,270,1.9,14.9,83,0.00,,,0.00,Rainwise IP-100,2013-05-27 12:17:00,
2013-05-27 08:22:00,49.5,44.0,30.03,WNW,292,3.3,11.7,81,0.00,,,0.00,Rainwise IP-100,2013-05-27 12:22:00,
2013-05-27 08:27:00,49.9,44.0,30.03,WSW,247,2.3,6.5,81,0.00,,,0.00,Rainwise IP-100,2013-05-27 12:27:00,
2013-05-27 08:32:00,50.3,45.0,30.03,NNW,337,2.8,16.3,80,0.00,,,0.00,Rainwise IP-100,2013-05-27 12:32:00,
2013-05-27 08:37:00,50.7,44.0,30.03,North,360,6.8,10.0,79,0.00,,,0.00,Rainwise IP-100,2013-05-27 12:37:00,
2013-05-27 08:42:00,51.2,45.0,30.03,NNW,337,3.0,11.2,78,0.00,,,0.00,Rainwise IP-100,2013-05-27 12:42:00,
2013-05-27 08:47:00,51.8,45.0,30.03,WNW,292,1.6,7.0,77,0.00,,,0.00,Rainwise IP-100,2013-05-27 12:47:00,
2013-05-27 08:52:00,51.8,44.0,30.03,NW,315,2.8,13.3,74,0.00,,,0.00,Rainwise IP-100,2013-05-27 12:52:00,
2013-05-27 08:57:00,51.5,43.0,30.03,NW,315,4.2,12.1,72,0.00,,,0.00,Rainwise IP-100,2013-05-27 12:57:00,
2013-05-27 09:02:00,51.5,43.0,30.03,NNW,337,11.2,14.0,71,0.00,,,0.00,Rainwise IP-100,2013-05-27 13:02:00,
2013-05-27 09:07:00,51.4,42.0,30.03,NW,315,3.7,15.9,71,0.00,,,0.00,Rainwise IP-100,2013-05-27 13:07:00,
2013-05-27 09:12:00,51.1,42.0,30.03,North,360,2.8,15.2,71,0.00,,,0.00,Rainwise IP-100,2013-05-27 13:12:00,
2013-05-27 09:17:00,50.8,42.0,30.03,WSW,247,6.1,11.2,72,0.00,,,0.00,Rainwise IP-100,2013-05-27 13:17:00,
2013-05-27 09:22:00,51.1,42.0,30.03,NW,315,6.1,10.7,72,0.00,,,0.00,Rainwise IP-100,2013-05-27 13:22:00,
2013-05-27 09:27:00,51.6,43.0,30.03,NW,315,4.9,13.8,71,0.00,,,0.00,Rainwise IP-100,2013-05-27 13:27:00,
2013-05-27 09:32:00,51.5,42.0,30.03,NW,315,1.6,14.2,70,0.00,,,0.00,Rainwise IP-100,2013-05-27 13:32:00,
2013-05-27 09:37:00,51.4,42.0,30.03,WNW,292,6.5,12.6,71,0.00,,,0.00,Rainwise IP-100,2013-05-27 13:37:00,
2013-05-27 09:42:00,51.5,42.0,30.03,West,270,4.4,10.5,70,0.00,,,0.00,Rainwise IP-100,2013-05-27 13:42:00,
2013-05-27 09:47:00,51.9,42.0,30.03,NNW,337,4.2,11.2,69,0.00,,,0.00,Rainwise IP-100,2013-05-27 13:47:00,
2013-05-27 09:52:00,52.9,42.0,30.03,NNW,337,9.6,12.8,67,0.00,,,0.00,Rainwise IP-100,2013-05-27 13:52:00,
2013-05-27 09:57:00,53.6,42.0,30.03,NNW,337,8.6,15.6,65,0.00,,,0.00,Rainwise IP-100,2013-05-27 13:57:00,
2013-05-27 10:02:00,53.3,41.0,30.03,West,270,4.7,13.1,63,0.00,,,0.00,Rainwise IP-100,2013-05-27 14:02:00,
2013-05-27 10:07:00,52.5,40.0,30.03,NW,315,3.5,12.1,63,0.00,,,0.00,Rainwise IP-100,2013-05-27 14:07:00,
2013-05-27 10:12:00,52.0,41.0,30.03,NNW,337,2.8,5.6,66,0.00,,,0.00,Rainwise IP-100,2013-05-27 14:12:00,
2013-05-27 10:17:00,51.8,42.0,30.03,WSW,247,1.6,11.2,68,0.00,,,0.00,Rainwise IP-100,2013-05-27 14:17:00,
2013-05-27 10:22:00,51.7,41.0,30.03,East,90,0.0,8.4,67,0.00,,,0.00,Rainwise IP-100,2013-05-27 14:22:00,
2013-05-27 10:27:00,51.8,41.0,30.03,WNW,292,3.7,11.4,66,0.00,,,0.00,Rainwise IP-100,2013-05-27 14:27:00,
2013-05-27 10:32:00,51.9,41.0,30.03,North,360,3.3,10.7,66,0.00,,,0.00,Rainwise IP-100,2013-05-27 14:32:00,
2013-05-27 10:37:00,52.1,41.0,30.03,NNW,337,2.6,11.9,66,0.00,,,0.00,Rainwise IP-100,2013-05-27 14:37:00,
2013-05-27 10:42:00,52.3,40.0,30.03,WSW,247,2.8,11.4,65,0.00,,,0.00,Rainwise IP-100,2013-05-27 14:42:00,
2013-05-27 10:47:00,52.9,40.0,30.03,NNE,22,2.8,8.9,63,0.00,,,0.00,Rainwise IP-100,2013-05-27 14:47:00,
2013-05-27 10:52:00,54.0,40.0,30.03,NW,315,10.7,15.6,60,0.00,,,0.00,Rainwise IP-100,2013-05-27 14:52:00,
2013-05-27 10:57:00,54.4,40.0,30.03,NNE,22,4.2,12.4,59,0.00,,,0.00,Rainwise IP-100,2013-05-27 14:57:00,
2013-05-27 11:02:00,54.3,40.0,30.03,NNW,337,5.4,12.8,57,0.00,,,0.00,Rainwise IP-100,2013-05-27 15:02:00,
2013-05-27 11:07:00,54.0,39.0,30.03,WSW,247,3.7,11.9,56,0.00,,,0.00,Rainwise IP-100,2013-05-27 15:07:00,
2013-05-27 11:12:00,54.1,39.0,30.03,WSW,247,2.6,11.0,57,0.00,,,0.00,Rainwise IP-100,2013-05-27 15:12:00,
2013-05-27 11:17:00,55.0,40.0,30.03,West,270,2.6,11.4,56,0.00,,,0.00,Rainwise IP-100,2013-05-27 15:17:00,
2013-05-27 11:22:00,55.2,39.0,30.03,West,270,5.1,14.0,55,0.00,,,0.00,Rainwise IP-100,2013-05-27 15:22:00,
2013-05-27 11:27:00,54.8,38.0,30.03,NNW,337,7.2,12.1,53,0.00,,,0.00,Rainwise IP-100,2013-05-27 15:27:00,
2013-05-27 11:32:00,55.3,38.0,30.03,WNW,292,4.9,15.2,53,0.00,,,0.00,Rainwise IP-100,2013-05-27 15:32:00,
2013-05-27 11:37:00,55.3,38.0,30.04,WNW,292,2.1,18.9,52,0.00,,,0.00,Rainwise IP-100,2013-05-27 15:37:00,
2013-05-27 11:42:00,54.8,38.0,30.04,WNW,292,3.0,11.9,53,0.00,,,0.00,Rainwise IP-100,2013-05-27 15:42:00,
2013-05-27 11:47:00,55.1,39.0,30.03,WNW,292,8.2,13.1,54,0.00,,,0.00,Rainwise IP-100,2013-05-27 15:47:00,
2013-05-27 11:52:00,54.9,38.0,30.03,NW,315,4.4,12.6,53,0.00,,,0.00,Rainwise IP-100,2013-05-27 15:52:00,
2013-05-27 11:57:00,54.7,38.0,30.04,ENE,67,2.1,10.0,53,0.00,,,0.00,Rainwise IP-100,2013-05-27 15:57:00,
2013-05-27 12:02:00,55.6,38.0,30.03,WNW,292,7.5,12.1,52,0.00,,,0.00,Rainwise IP-100,2013-05-27 16:02:00,
2013-05-27 12:07:00,56.1,38.0,30.04,WNW,292,7.2,13.8,51,0.00,,,0.00,Rainwise IP-100,2013-05-27 16:07:00,
2013-05-27 12:12:00,55.7,38.0,30.03,NNW,337,5.1,14.0,50,0.00,,,0.00,Rainwise IP-100,2013-05-27 16:12:00,
2013-05-27 12:17:00,55.7,38.0,30.04,WNW,292,7.2,10.5,51,0.00,,,0.00,Rainwise IP-100,2013-05-27 16:17:00,
2013-05-27 12:22:00,55.9,38.0,30.04,NNW,337,4.2,15.6,51,0.00,,,0.00,Rainwise IP-100,2013-05-27 16:22:00,
2013-05-27 12:27:00,56.1,38.0,30.03,WNW,292,2.1,10.5,50,0.00,,,0.00,Rainwise IP-100,2013-05-27 16:27:00,
2013-05-27 12:32:00,56.2,37.0,30.04,WNW,292,5.1,14.9,49,0.00,,,0.00,Rainwise IP-100,2013-05-27 16:32:00,
2013-05-27 12:37:00,56.4,38.0,30.03,WNW,292,11.9,16.3,49,0.00,,,0.00,Rainwise IP-100,2013-05-27 16:37:00,
2013-05-27 12:42:00,56.5,37.0,30.03,NW,315,5.6,15.4,48,0.00,,,0.00,Rainwise IP-100,2013-05-27 16:42:00,
2013-05-27 12:47:00,56.6,37.0,30.04,NNW,337,3.7,13.3,48,0.00,,,0.00,Rainwise IP-100,2013-05-27 16:47:00,
2013-05-27 12:52:00,57.0,38.0,30.03,WNW,292,5.1,13.8,48,0.00,,,0.00,Rainwise IP-100,2013-05-27 16:52:00,
2013-05-27 12:57:00,57.2,38.0,30.03,WNW,292,7.2,12.8,48,0.00,,,0.00,Rainwise IP-100,2013-05-27 16:57:00,
2013-05-27 13:02:00,57.0,38.0,30.03,North,360,7.5,10.0,48,0.00,,,0.00,Rainwise IP-100,2013-05-27 17:02:00,
2013-05-27 13:07:00,56.9,38.0,30.03,NW,315,3.7,8.4,48,0.00,,,0.00,Rainwise IP-100,2013-05-27 17:07:00,
2013-05-27 13:12:00,57.4,39.0,30.03,North,360,2.1,11.0,49,0.00,,,0.00,Rainwise IP-100,2013-05-27 17:12:00,
2013-05-27 13:17:00,58.0,39.0,30.03,NNW,337,7.0,13.1,48,0.00,,,0.00,Rainwise IP-100,2013-05-27 17:17:00,
2013-05-27 13:22:00,58.0,39.0,30.03,NNW,337,4.0,14.5,48,0.00,,,0.00,Rainwise IP-100,2013-05-27 17:22:00,
2013-05-27 13:27:00,58.3,38.0,30.03,NW,315,9.3,14.7,46,0.00,,,0.00,Rainwise IP-100,2013-05-27 17:27:00,
2013-05-27 13:32:00,59.2,37.0,30.03,NNW,337,1.6,14.9,43,0.00,,,0.00,Rainwise IP-100,2013-05-27 17:32:00,
2013-05-27 13:37:00,59.7,37.0,30.03,WNW,292,2.3,17.3,43,0.00,,,0.00,Rainwise IP-100,2013-05-27 17:37:00,
2013-05-27 13:42:00,59.1,37.0,30.03,NNW,337,5.8,11.9,44,0.00,,,0.00,Rainwise IP-100,2013-05-27 17:42:00,
2013-05-27 13:47:00,58.3,37.0,30.03,WNW,292,4.0,11.0,45,0.00,,,0.00,Rainwise IP-100,2013-05-27 17:47:00,
2013-05-27 13:52:00,58.5,39.0,30.03,WNW,292,4.7,6.1,47,0.00,,,0.00,Rainwise IP-100,2013-05-27 17:52:00,
2013-05-27 13:57:00,59.0,38.0,30.03,NW,315,6.5,10.3,46,0.00,,,0.00,Rainwise IP-100,2013-05-27 17:57:00,
2013-05-27 14:02:00,59.3,38.0,30.03,NNW,337,2.3,10.5,46,0.00,,,0.00,Rainwise IP-100,2013-05-27 18:02:00,
2013-05-27 14:07:00,59.9,38.0,30.03,WSW,247,1.9,12.4,45,0.00,,,0.00,Rainwise IP-100,2013-05-27 18:07:00,
2013-05-27 14:12:00,60.5,38.0,30.03,SSW,202,4.2,11.9,43,0.00,,,0.00,Rainwise IP-100,2013-05-27 18:12:00,
2013-05-27 14:17:00,60.3,38.0,30.03,NNW,337,4.2,11.0,43,0.00,,,0.00,Rainwise IP-100,2013-05-27 18:17:00,
2013-05-27 14:22:00,60.2,37.0,30.03,NNW,337,4.7,7.2,43,0.00,,,0.00,Rainwise IP-100,2013-05-27 18:22:00,
2013-05-27 14:27:00,59.9,37.0,30.03,NW,315,2.3,7.7,43,0.00,,,0.00,Rainwise IP-100,2013-05-27 18:27:00,
2013-05-27 14:32:00,60.0,38.0,30.03,ENE,67,3.7,7.2,45,0.00,,,0.00,Rainwise IP-100,2013-05-27 18:32:00,
2013-05-27 14:37:00,61.5,39.0,30.03,WNW,292,3.5,11.4,44,0.00,,,0.00,Rainwise IP-100,2013-05-27 18:37:00,
2013-05-27 14:42:00,61.8,39.0,30.03,NNW,337,7.0,14.2,42,0.00,,,0.00,Rainwise IP-100,2013-05-27 18:42:00,
2013-05-27 14:47:00,60.8,37.0,30.03,ENE,67,2.1,11.9,41,0.00,,,0.00,Rainwise IP-100,2013-05-27 18:47:00,
2013-05-27 14:52:00,60.8,37.0,30.03,NNW,337,5.8,11.4,41,0.00,,,0.00,Rainwise IP-100,2013-05-27 18:52:00,
2013-05-27 14:57:00,61.4,37.0,30.03,NNW,337,9.1,11.0,40,0.00,,,0.00,Rainwise IP-100,2013-05-27 18:57:00,
2013-05-27 15:02:00,61.2,36.0,30.03,NW,315,8.6,14.0,38,0.00,,,0.00,Rainwise IP-100,2013-05-27 19:02:00,
2013-05-27 15:07:00,61.4,36.0,30.03,NW,315,4.2,12.6,38,0.00,,,0.00,Rainwise IP-100,2013-05-27 19:07:00,
2013-05-27 15:12:00,62.5,37.0,30.03,WNW,292,3.3,10.7,38,0.00,,,0.00,Rainwise IP-100,2013-05-27 19:12:00,
2013-05-27 15:17:00,63.2,36.0,30.03,WNW,292,4.0,8.6,37,0.00,,,0.00,Rainwise IP-100,2013-05-27 19:17:00,
2013-05-27 15:22:00,63.3,36.0,30.03,NNW,337,6.3,14.5,35,0.00,,,0.00,Rainwise IP-100,2013-05-27 19:22:00,
2013-05-27 15:27:00,62.7,35.0,30.03,NW,315,15.9,15.9,35,0.00,,,0.00,Rainwise IP-100,2013-05-27 19:27:00,
2013-05-27 15:32:00,62.5,33.0,30.03,WSW,247,6.5,15.9,34,0.00,,,0.00,Rainwise IP-100,2013-05-27 19:32:00,
2013-05-27 15:37:00,62.3,33.0,30.03,NW,315,5.6,11.9,34,0.00,,,0.00,Rainwise IP-100,2013-05-27 19:37:00,
2013-05-27 15:42:00,62.4,33.0,30.04,NNW,337,5.8,13.1,34,0.00,,,0.00,Rainwise IP-100,2013-05-27 19:42:00,
2013-05-27 15:47:00,62.8,35.0,30.03,WNW,292,5.1,7.7,34,0.00,,,0.00,Rainwise IP-100,2013-05-27 19:47:00,
2013-05-27 15:52:00,62.6,36.0,30.04,WNW,292,2.6,11.0,36,0.00,,,0.00,Rainwise IP-100,2013-05-27 19:52:00,
2013-05-27 15:57:00,62.5,37.0,30.04,NNE,22,4.2,4.9,39,0.00,,,0.00,Rainwise IP-100,2013-05-27 19:57:00,
2013-05-27 16:02:00,62.5,39.0,30.04,ESE,112,3.3,9.6,42,0.00,,,0.00,Rainwise IP-100,2013-05-27 20:02:00,
2013-05-27 16:07:00,62.1,40.0,30.05,NNW,337,0.0,4.2,44,0.00,,,0.00,Rainwise IP-100,2013-05-27 20:07:00,
2013-05-27 16:12:00,61.9,39.0,30.05,NNE,22,1.9,9.6,42,0.00,,,0.00,Rainwise IP-100,2013-05-27 20:12:00,
2013-05-27 16:17:00,62.1,38.0,30.05,WSW,247,1.9,10.0,41,0.00,,,0.00,Rainwise IP-100,2013-05-27 20:17:00,
2013-05-27 16:22:00,61.6,39.0,30.05,North,360,0.0,11.0,44,0.00,,,0.00,Rainwise IP-100,2013-05-27 20:22:00,
2013-05-27 16:27:00,61.1,40.0,30.05,South,180,2.6,8.2,46,0.00,,,0.00,Rainwise IP-100,2013-05-27 20:27:00,
2013-05-27 16:32:00,61.3,41.0,30.05,ESE,112,4.9,9.1,47,0.00,,,0.00,Rainwise IP-100,2013-05-27 20:32:00,
2013-05-27 16:37:00,61.1,40.0,30.06,ESE,112,4.2,5.8,47,0.00,,,0.00,Rainwise IP-100,2013-05-27 20:37:00,
2013-05-27 16:42:00,61.1,40.0,30.05,ENE,67,5.1,6.1,47,0.00,,,0.00,Rainwise IP-100,2013-05-27 20:42:00,
2013-05-27 16:47:00,60.8,40.0,30.06,ESE,112,4.0,5.8,47,0.00,,,0.00,Rainwise IP-100,2013-05-27 20:47:00,
2013-05-27 16:52:00,59.9,40.0,30.06,ESE,112,2.8,6.3,48,0.00,,,0.00,Rainwise IP-100,2013-05-27 20:52:00,
2013-05-27 16:57:00,59.9,40.0,30.06,ESE,112,1.2,9.1,48,0.00,,,0.00,Rainwise IP-100,2013-05-27 20:57:00,
2013-05-27 17:02:00,60.5,40.0,30.06,ENE,67,5.4,5.6,48,0.00,,,0.00,Rainwise IP-100,2013-05-27 21:02:00,
2013-05-27 17:07:00,60.1,40.0,30.06,East,90,2.3,6.8,48,0.00,,,0.00,Rainwise IP-100,2013-05-27 21:07:00,
2013-05-27 17:12:00,59.5,39.0,30.06,ENE,67,1.2,3.5,48,0.00,,,0.00,Rainwise IP-100,2013-05-27 21:12:00,
2013-05-27 17:17:00,59.5,41.0,30.06,ESE,112,0.0,4.9,50,0.00,,,0.00,Rainwise IP-100,2013-05-27 21:17:00,
2013-05-27 17:22:00,59.6,41.0,30.07,ENE,67,0.0,3.3,51,0.00,,,0.00,Rainwise IP-100,2013-05-27 21:22:00,
2013-05-27 17:27:00,59.5,42.0,30.07,NE,45,0.0,3.3,52,0.00,,,0.00,Rainwise IP-100,2013-05-27 21:27:00,
2013-05-27 17:32:00,59.2,41.0,30.07,NNW,337,0.0,3.0,52,0.00,,,0.00,Rainwise IP-100,2013-05-27 21:32:00,
2013-05-27 17:37:00,59.0,42.0,30.07,SSE,157,1.4,1.6,53,0.00,,,0.00,Rainwise IP-100,2013-05-27 21:37:00,
2013-05-27 17:42:00,58.9,43.0,30.07,WSW,247,0.0,2.1,55,0.00,,,0.00,Rainwise IP-100,2013-05-27 21:42:00,
2013-05-27 17:47:00,58.7,43.0,30.08,West,270,0.0,2.3,56,0.00,,,0.00,Rainwise IP-100,2013-05-27 21:47:00,
2013-05-27 17:52:00,58.5,43.0,30.08,West,270,2.8,4.2,56,0.00,,,0.00,Rainwise IP-100,2013-05-27 21:52:00,
2013-05-27 17:57:00,58.4,40.0,30.08,WSW,247,1.6,7.7,51,0.00,,,0.00,Rainwise IP-100,2013-05-27 21:57:00,
2013-05-27 18:02:00,58.3,38.0,30.08,WNW,292,2.3,5.8,47,0.00,,,0.00,Rainwise IP-100,2013-05-27 22:02:00,
2013-05-27 18:07:00,58.3,37.0,30.08,WNW,292,1.9,5.6,45,0.00,,,0.00,Rainwise IP-100,2013-05-27 22:07:00,
2013-05-27 18:12:00,58.3,37.0,30.08,North,360,1.9,4.7,44,0.00,,,0.00,Rainwise IP-100,2013-05-27 22:12:00,
2013-05-27 18:17:00,58.1,37.0,30.08,NNE,22,2.6,4.4,44,0.00,,,0.00,Rainwise IP-100,2013-05-27 22:17:00,
2013-05-27 18:22:00,58.0,37.0,30.08,NNW,337,0.0,4.4,45,0.00,,,0.00,Rainwise IP-100,2013-05-27 22:22:00,
2013-05-27 18:27:00,57.9,38.0,30.08,NNE,22,0.0,2.8,46,0.00,,,0.00,Rainwise IP-100,2013-05-27 22:27:00,
2013-05-27 18:32:00,58.0,39.0,30.09,NNE,22,0.0,1.2,49,0.00,,,0.00,Rainwise IP-100,2013-05-27 22:32:00,
2013-05-27 18:37:00,58.1,40.0,30.09,SW,225,1.6,2.3,50,0.00,,,0.00,Rainwise IP-100,2013-05-27 22:37:00,
2013-05-27 18:42:00,58.1,39.0,30.09,SE,135,0.0,4.9,49,0.00,,,0.00,Rainwise IP-100,2013-05-27 22:42:00,
2013-05-27 18:47:00,58.0,40.0,30.09,SE,135,0.0,1.9,50,0.00,,,0.00,Rainwise IP-100,2013-05-27 22:47:00,
2013-05-27 18:52:00,57.7,40.0,30.09,WNW,292,1.9,2.3,53,0.00,,,0.00,Rainwise IP-100,2013-05-27 22:52:00,
2013-05-27 18:57:00,57.4,41.0,30.10,ENE,67,0.0,3.5,55,0.00,,,0.00,Rainwise IP-100,2013-05-27 22:57:00,
2013-05-27 19:02:00,57.0,42.0,30.10,ENE,67,0.0,2.3,58,0.00,,,0.00,Rainwise IP-100,2013-05-27 23:02:00,
2013-05-27 19:07:00,56.5,43.0,30.10,ENE,67,0.0,1.2,61,0.00,,,0.00,Rainwise IP-100,2013-05-27 23:07:00,
2013-05-27 19:12:00,55.9,43.0,30.10,NW,315,1.4,1.9,63,0.00,,,0.00,Rainwise IP-100,2013-05-27 23:12:00,
2013-05-27 19:17:00,55.3,43.0,30.11,NNW,337,0.0,3.7,64,0.00,,,0.00,Rainwise IP-100,2013-05-27 23:17:00,
2013-05-27 19:22:00,54.7,43.0,30.11,ENE,67,0.0,4.4,64,0.00,,,0.00,Rainwise IP-100,2013-05-27 23:22:00,
2013-05-27 19:27:00,54.3,43.0,30.11,NE,45,0.0,1.9,65,0.00,,,0.00,Rainwise IP-100,2013-05-27 23:27:00,
2013-05-27 19:32:00,54.1,43.0,30.12,SE,135,1.2,3.5,66,0.00,,,0.00,Rainwise IP-100,2013-05-27 23:32:00,
2013-05-27 19:37:00,53.7,43.0,30.12,North,360,0.0,1.6,69,0.00,,,0.00,Rainwise IP-100,2013-05-27 23:37:00,
2013-05-27 19:42:00,53.4,44.0,30.13,NE,45,3.3,4.9,70,0.00,,,0.00,Rainwise IP-100,2013-05-27 23:42:00,
2013-05-27 19:47:00,53.1,43.0,30.13,NNE,22,1.4,5.4,69,0.00,,,0.00,Rainwise IP-100,2013-05-27 23:47:00,
2013-05-27 19:52:00,52.9,42.0,30.14,East,90,0.0,8.4,67,0.00,,,0.00,Rainwise IP-100,2013-05-27 23:52:00,
2013-05-27 19:57:00,52.8,41.0,30.14,NNW,337,1.4,5.1,66,0.00,,,0.00,Rainwise IP-100,2013-05-27 23:57:00,
2013-05-27 20:02:00,52.7,41.0,30.14,ENE,67,2.8,7.0,66,0.00,,,0.00,Rainwise IP-100,2013-05-28 00:02:00,
2013-05-27 20:07:00,52.6,41.0,30.14,NNE,22,1.2,4.9,65,0.00,,,0.00,Rainwise IP-100,2013-05-28 00:07:00,
2013-05-27 20:12:00,52.3,40.0,30.14,NNE,22,2.3,6.1,65,0.00,,,0.00,Rainwise IP-100,2013-05-28 00:12:00,
2013-05-27 20:17:00,52.0,41.0,30.14,SE,135,0.0,4.7,66,0.00,,,0.00,Rainwise IP-100,2013-05-28 00:17:00,
2013-05-27 20:22:00,51.7,41.0,30.14,NNE,22,2.6,3.7,66,0.00,,,0.00,Rainwise IP-100,2013-05-28 00:22:00,
2013-05-27 20:27:00,51.5,41.0,30.15,ENE,67,1.9,4.4,67,0.00,,,0.00,Rainwise IP-100,2013-05-28 00:27:00,
2013-05-27 20:32:00,51.2,41.0,30.15,NNE,22,0.0,4.9,68,0.00,,,0.00,Rainwise IP-100,2013-05-28 00:32:00,
2013-05-27 20:37:00,51.0,41.0,30.16,NNW,337,0.0,5.1,68,0.00,,,0.00,Rainwise IP-100,2013-05-28 00:37:00,
2013-05-27 20:42:00,50.8,42.0,30.16,WNW,292,0.0,3.7,70,0.00,,,0.00,Rainwise IP-100,2013-05-28 00:42:00,
2013-05-27 20:47:00,50.7,41.0,30.15,ENE,67,0.0,3.0,70,0.00,,,0.00,Rainwise IP-100,2013-05-28 00:47:00,
2013-05-27 20:52:00,50.6,41.0,30.16,ENE,67,0.0,3.0,70,0.00,,,0.00,Rainwise IP-100,2013-05-28 00:52:00,
2013-05-27 20:57:00,50.4,41.0,30.16,ENE,67,0.0,2.3,71,0.00,,,0.00,Rainwise IP-100,2013-05-28 00:57:00,
2013-05-27 21:02:00,50.2,41.0,30.16,NNE,22,0.0,1.2,72,0.00,,,0.00,Rainwise IP-100,2013-05-28 01:02:00,
2013-05-27 21:07:00,50.0,41.0,30.17,NNE,22,0.0,0.0,73,0.00,,,0.00,Rainwise IP-100,2013-05-28 01:07:00,
2013-05-27 21:12:00,49.8,42.0,30.17,SSW,202,0.0,1.9,75,0.00,,,0.00,Rainwise IP-100,2013-05-28 01:12:00,
2013-05-27 21:17:00,49.4,41.0,30.18,SSW,202,0.0,1.2,75,0.00,,,0.00,Rainwise IP-100,2013-05-28 01:17:00,
2013-05-27 21:22:00,49.1,41.0,30.17,SSW,202,0.0,1.2,75,0.00,,,0.00,Rainwise IP-100,2013-05-28 01:22:00,
2013-05-27 21:27:00,48.8,41.0,30.17,SSW,202,0.0,0.0,75,0.00,,,0.00,Rainwise IP-100,2013-05-28 01:27:00,
2013-05-27 21:32:00,48.4,41.0,30.17,SSW,202,0.0,0.0,75,0.00,,,0.00,Rainwise IP-100,2013-05-28 01:32:00,
2013-05-27 21:37:00,48.1,41.0,30.17,SSW,202,0.0,0.0,75,0.00,,,0.00,Rainwise IP-100,2013-05-28 01:37:00,
2013-05-27 21:42:00,48.1,41.0,30.18,SSW,202,0.0,0.0,75,0.00,,,0.00,Rainwise IP-100,2013-05-28 01:42:00,
2013-05-27 21:47:00,48.4,40.0,30.18,ESE,112,1.2,2.6,74,0.00,,,0.00,Rainwise IP-100,2013-05-28 01:47:00,
2013-05-27 21:52:00,48.7,41.0,30.18,ESE,112,1.6,2.3,73,0.00,,,0.00,Rainwise IP-100,2013-05-28 01:52:00,
2013-05-27 21:57:00,48.8,41.0,30.18,ESE,112,2.1,2.3,73,0.00,,,0.00,Rainwise IP-100,2013-05-28 01:57:00,
2013-05-27 22:02:00,48.9,41.0,30.18,ESE,112,1.4,2.6,73,0.00,,,0.00,Rainwise IP-100,2013-05-28 02:02:00,
2013-05-27 22:07:00,49.0,40.0,30.18,ESE,112,2.1,2.8,72,0.00,,,0.00,Rainwise IP-100,2013-05-28 02:07:00,
2013-05-27 22:12:00,49.1,40.0,30.18,ESE,112,2.6,4.0,72,0.00,,,0.00,Rainwise IP-100,2013-05-28 02:12:00,
2013-05-27 22:17:00,49.1,40.0,30.18,ESE,112,1.4,3.0,72,0.00,,,0.00,Rainwise IP-100,2013-05-28 02:17:00,
2013-05-27 22:22:00,48.9,40.0,30.18,ESE,112,2.1,2.3,72,0.00,,,0.00,Rainwise IP-100,2013-05-28 02:22:00,
2013-05-27 22:27:00,48.7,40.0,30.18,ESE,112,1.2,2.6,72,0.00,,,0.00,Rainwise IP-100,2013-05-28 02:27:00,
2013-05-27 22:32:00,48.5,41.0,30.18,East,90,1.4,2.8,73,0.00,,,0.00,Rainwise IP-100,2013-05-28 02:32:00,
2013-05-27 22:37:00,48.3,40.0,30.18,ESE,112,0.0,2.3,73,0.00,,,0.00,Rainwise IP-100,2013-05-28 02:37:00,
2013-05-27 22:42:00,48.0,40.0,30.19,East,90,1.2,2.3,73,0.00,,,0.00,Rainwise IP-100,2013-05-28 02:42:00,
2013-05-27 22:47:00,47.9,40.0,30.18,East,90,1.4,3.0,73,0.00,,,0.00,Rainwise IP-100,2013-05-28 02:47:00,
2013-05-27 22:52:00,47.9,39.0,30.18,ESE,112,0.0,2.1,72,0.00,,,0.00,Rainwise IP-100,2013-05-28 02:52:00,
2013-05-27 22:57:00,47.8,39.0,30.18,ESE,112,1.2,2.1,72,0.00,,,0.00,Rainwise IP-100,2013-05-28 02:57:00,
2013-05-27 23:02:00,47.6,39.0,30.18,ESE,112,1.6,1.6,72,0.00,,,0.00,Rainwise IP-100,2013-05-28 03:02:00,
2013-05-27 23:07:00,47.6,38.0,30.18,East,90,1.6,1.9,71,0.00,,,0.00,Rainwise IP-100,2013-05-28 03:07:00,
2013-05-27 23:12:00,47.8,39.0,30.18,East,90,0.0,2.3,70,0.00,,,0.00,Rainwise IP-100,2013-05-28 03:12:00,
2013-05-27 23:17:00,48.0,38.0,30.19,East,90,1.6,1.6,69,0.00,,,0.00,Rainwise IP-100,2013-05-28 03:17:00,
2013-05-27 23:22:00,48.0,38.0,30.19,East,90,1.2,1.9,69,0.00,,,0.00,Rainwise IP-100,2013-05-28 03:22:00,
2013-05-27 23:27:00,47.9,38.0,30.19,ENE,67,1.2,1.9,69,0.00,,,0.00,Rainwise IP-100,2013-05-28 03:27:00,
2013-05-27 23:32:00,47.8,38.0,30.19,ESE,112,0.0,2.6,69,0.00,,,0.00,Rainwise IP-100,2013-05-28 03:32:00,
2013-05-27 23:37:00,47.8,38.0,30.19,ESE,112,1.2,2.8,69,0.00,,,0.00,Rainwise IP-100,2013-05-28 03:37:00,
2013-05-27 23:42:00,47.9,38.0,30.19,ESE,112,1.6,2.1,69,0.00,,,0.00,Rainwise IP-100,2013-05-28 03:42:00,
2013-05-27 23:47:00,48.0,38.0,30.19,SE,135,0.0,3.5,68,0.00,,,0.00,Rainwise IP-100,2013-05-28 03:47:00,
2013-05-27 23:52:00,47.9,38.0,30.20,SE,135,0.0,2.1,68,0.00,,,0.00,Rainwise IP-100,2013-05-28 03:52:00,
2013-05-27 23:57:00,47.6,38.0,30.20,SE,135,0.0,0.0,69,0.00,,,0.00,Rainwise IP-100,2013-05-28 03:57:00,